Home > Weather > Thessaloniki > Past weeks

Flag for Greece Weather for the Past 2 Weeks in Thessaloniki, Greece

Now
61 °F

Sunny.


Feels Like: 61 °F
Forecast: 40 / 63 °F
Wind: 5 mph from Northwest

Location: Thessaloniki Airport

Current Time: Feb 11, 2016 at 1:29:38 PM

Latest Report: Feb 11, 2016 at 12:50 PM


Visibility: 10 mi

Pressure: 29.83 "Hg

Humidity: 25%

Dew point: 25 °F

Location of ThessalonikiLocation

Historic Weather in Thessaloniki — Graph

°F

Thessaloniki Temperature Yesterday

Maximum temperature yesterday: 61 °F (at 1:50 PM)
Minimum temperature yesterday: 45 °F (at 12:20 AM)
Average temperature yesterday: 54 °F

High & Low Weather Summary for the Past Weeks

 TemperatureHumidityPressure
High64 °F (Jan 30, 3:20 PM)100% (Jan 28, 5:50 AM)30.45 "Hg (Jan 28, 5:50 AM)
Low30 °F (Feb 7, 7:20 AM)25% (Jan 30, 4:50 PM)29.53 "Hg (Feb 10, 10:50 PM)
Average48 °F73%30.18 "Hg
* Reported Jan 27 11:20 AM — Feb 11 11:50 AM, Thessaloniki, Weather by CustomWeather, © 2016

Note: Actual official high and low records may vary slightly from our data, if they occured in-between our weather recording intervals... More about our weather records

Advertising

Thessaloniki Weather History for the Previous 24 Hours

 ConditionsComfort  
Time TempWeatherWind HumidityBarometerVisibility
11:50 AM
Thu, Feb 11
61 °FSunny.5 mph29%29.86 "Hg10 mi
11:20 AM57 °FSunny.7 mph41%29.86 "Hg10 mi
10:50 AM57 °FSunny.7 mph41%29.86 "Hg10 mi
10:20 AM55 °FSunny.7 mph47%29.83 "Hg10 mi
9:50 AM54 °FSunny.7 mph51%29.83 "Hg10 mi
9:20 AM54 °FPassing clouds.8 mph47%29.83 "HgN/A
8:50 AM54 °FPassing clouds.9 mph47%29.80 "HgN/A
8:20 AM54 °FPassing clouds.8 mph44%29.80 "HgN/A
7:50 AM52 °FPassing clouds.6 mph62%29.80 "HgN/A
7:20 AM50 °FPassing clouds.8 mph62%29.77 "HgN/A
6:50 AM52 °FPassing clouds.3 mph62%29.77 "HgN/A
6:20 AM54 °FPassing clouds.12 mph54%29.74 "HgN/A
5:50 AM54 °FPartly cloudy.13 mph54%29.71 "HgN/A
4:50 AM52 °FPartly cloudy.6 mph77%29.68 "HgN/A
3:50 AM52 °FPartly cloudy.12 mph88%29.65 "HgN/A
3:20 AM52 °FPartly cloudy.8 mph88%29.65 "HgN/A
2:50 AM55 °FPartly cloudy.6 mph67%29.62 "HgN/A
1:50 AM55 °FPartly cloudy.3 mph72%29.59 "HgN/A
1:20 AM55 °FPartly cloudy.2 mph72%29.59 "HgN/A
12:50 AM59 °FPartly cloudy.7 mph63%29.59 "HgN/A
12:20 AM61 °FPassing clouds.17 mph59%29.56 "HgN/A
11:50 PM
Wed, Feb 10
59 °FPassing clouds.16 mph63%29.56 "HgN/A
10:50 PM61 °FPassing clouds.17 mph55%29.53 "HgN/A
10:20 PM61 °FPassing clouds.17 mph55%29.56 "HgN/A
9:50 PM59 °FPassing clouds.17 mph59%29.56 "HgN/A
9:20 PM61 °FPassing clouds.15 mph55%29.56 "HgN/A
8:50 PM59 °FPassing clouds.17 mph59%29.56 "HgN/A
8:20 PM61 °FPassing clouds.17 mph55%29.56 "HgN/A
7:50 PM59 °FPassing clouds.17 mph77%29.59 "HgN/A
7:20 PM61 °FPassing clouds.17 mph55%29.59 "HgN/A
6:50 PM61 °FPassing clouds.17 mph52%29.59 "HgN/A
6:20 PM61 °FPassing clouds.17 mph52%29.59 "HgN/A
5:50 PM61 °FPartly sunny.21 mph52%29.59 "HgN/A
5:20 PM61 °FPartly sunny.20 mph52%29.62 "HgN/A
4:50 PM61 °FPartly sunny.20 mph55%29.62 "HgN/A
4:20 PM61 °FPartly sunny.20 mph52%29.62 "HgN/A
3:50 PM61 °FPartly sunny.20 mph52%29.65 "HgN/A
3:20 PM61 °FScattered clouds.14 mph55%29.65 "HgN/A
2:50 PM61 °FBroken clouds.14 mph55%29.68 "HgN/A
2:20 PM61 °FBroken clouds.14 mph59%29.68 "HgN/A
1:50 PM61 °FBroken clouds.12 mph59%29.71 "HgN/A
1:20 PM59 °FBroken clouds.10 mph59%29.71 "HgN/A
Weather by CustomWeather, © 2016

See weather overviewHow to use our weather pages